Date String (YYYY-MM-DD hh:mm:ss) UTC,Instrument flags,Ambient pressure (hPa),Sample flow (lpm),Bypass flow (lpm),Sample temperature (°C),Ambient temperature (°C),ASC tube jacket temperature (°C),LED temperature (°C),Box temperature (°C),Sample RH (%),Span deviation,Mass concentration (μg/m³),Mass concentration (μg/m³),Mass concentration (μg/m³)
DateTimeUTC,F1_M11,P_M11,Q1_M11,Q2_M11,T1_M11,T2_M11,T3_M11,T4_M11,T5_M11,U1_M11,ZSPAN_M11,X0_M11,X2_M11,X1_M11
2022-11-08 19:00:00,,0821.9,5.00,0.00,25.7,24.8,00.0,34.4,27.7,16.4,-000.4,0009.86,0004.96,0004.05
2022-11-08 19:01:00,,0821.8,5.01,0.00,25.8,24.8,00.0,34.5,27.7,16.4,-000.8,0009.62,0004.87,0004.01
2022-11-08 19:02:00,,0821.9,4.99,0.00,25.8,24.8,00.0,34.5,27.7,16.2,-001.2,0010.10,0004.82,0003.97
2022-11-08 19:03:00,,0821.8,5.02,0.00,25.8,24.8,00.0,34.5,27.7,16.6,-001.2,0010.68,0004.79,0003.94
2022-11-08 19:04:00,,0821.8,4.99,0.00,25.8,24.8,00.0,34.5,27.7,16.3,-001.4,0010.94,0004.69,0003.91
2022-11-08 19:05:00,,0821.8,5.00,0.00,25.8,24.8,00.0,34.5,27.8,16.5,-000.9,0012.09,0004.64,0003.89
2022-11-08 19:06:00,,0821.8,5.02,0.00,25.8,24.8,00.0,34.5,27.8,16.3,-001.3,0012.71,0004.67,0003.88
2022-11-08 19:07:00,,0821.8,4.99,0.00,25.8,24.9,00.0,34.5,27.8,16.1,-001.5,0012.73,0004.63,0003.85
2022-11-08 19:08:00,,0821.8,5.00,0.00,25.9,24.9,00.0,34.6,27.8,15.5,-001.5,0012.58,0004.60,0003.81
2022-11-08 19:09:00,,0821.8,5.01,0.00,25.9,24.9,00.0,34.6,27.8,15.8,-000.9,0012.70,0004.58,0003.78
2022-11-08 19:10:00,,0821.8,5.00,0.00,25.9,24.9,00.0,34.6,27.9,15.9,-000.5,0012.75,0004.54,0003.75
2022-11-08 19:11:00,,0821.8,5.00,0.00,25.9,24.9,00.0,34.6,27.9,15.9,-000.5,0012.68,0004.54,0003.75
2022-11-08 19:12:00,,0821.7,5.00,0.00,26.0,25.0,00.0,34.6,27.9,16.1,-000.5,0012.71,0004.58,0003.74
2022-11-08 19:13:00,,0821.7,5.00,0.00,26.0,25.0,00.0,34.7,27.9,16.2,-000.7,0012.62,0004.57,0003.73
2022-11-08 19:14:00,,0821.6,5.00,0.00,26.0,25.0,00.0,34.7,27.9,15.6,-001.2,0012.05,0004.53,0003.70
2022-11-08 19:15:00,,0821.6,5.00,0.00,26.0,25.0,00.0,34.7,27.9,15.8,-001.7,0011.54,0004.52,0003.68
2022-11-08 19:16:00,,0821.7,5.00,0.00,26.0,25.0,00.0,34.7,28.0,15.7,-002.1,0010.39,0004.51,0003.67
2022-11-08 19:17:00,,0821.6,5.00,0.00,26.1,25.1,00.0,34.8,28.0,15.8,-001.7,0009.63,0004.42,0003.63
2022-11-08 19:18:00,,0821.6,4.99,0.00,26.1,25.1,00.0,34.7,28.0,15.7,-001.9,0009.73,0004.41,0003.60
2022-11-08 19:19:00,,0821.6,5.01,0.00,26.1,25.1,00.0,34.8,28.1,16.1,-001.9,0009.56,0004.34,0003.60
2022-11-08 19:20:00,,0821.6,5.01,0.00,26.1,25.2,00.0,34.8,28.1,15.6,-001.8,0009.36,0004.30,0003.59
2022-11-08 19:21:00,,0821.6,4.99,0.00,26.2,25.2,00.0,34.8,28.1,15.1,-001.8,0009.36,0004.26,0003.56
2022-11-08 19:22:00,,0821.6,5.00,0.00,26.2,25.2,00.0,34.8,28.1,15.5,-001.5,0010.25,0004.21,0003.53
2022-11-08 19:23:00,,0821.5,5.00,0.00,26.2,25.3,00.0,34.8,28.2,15.8,-001.2,0010.22,0004.14,0003.50
2022-11-08 19:24:00,,0821.5,5.00,0.00,26.2,25.3,00.0,34.9,28.2,15.6,-000.7,0009.85,0004.12,0003.47
2022-11-08 19:25:00,,0821.5,5.00,0.00,26.3,25.3,00.0,34.9,28.2,15.4,0000.2,0009.78,0004.12,0003.47
2022-11-08 19:26:00,,0821.4,5.00,0.00,26.3,25.3,00.0,34.9,28.2,15.2,0000.1,0010.37,0004.10,0003.45
2022-11-08 19:27:00,,0821.4,5.00,0.00,26.3,25.3,00.0,34.9,28.2,15.4,0000.5,0010.58,0004.09,0003.43
2022-11-08 19:28:00,,0821.4,4.99,0.00,26.3,25.4,00.0,34.9,28.3,15.2,0001.4,0010.97,0004.10,0003.43
2022-11-08 19:29:00,,0821.4,5.00,0.00,26.3,25.4,00.0,35.0,28.3,14.9,0002.1,0011.03,0004.06,0003.40
2022-11-08 19:30:00,,0821.4,5.01,0.00,26.4,25.4,00.0,35.0,28.3,15.0,0002.7,0011.94,0004.07,0003.37
2022-11-08 19:31:00,,0821.3,4.99,0.00,26.4,25.4,00.0,35.0,28.4,15.1,0002.4,0013.20,0004.09,0003.35
2022-11-08 19:32:00,,0821.3,5.02,0.00,26.4,25.5,00.0,35.0,28.4,15.2,0002.2,0013.35,0004.11,0003.34
2022-11-08 19:33:00,,0821.4,5.00,0.00,26.4,25.5,00.0,35.1,28.4,15.2,0001.9,0012.25,0004.10,0003.33
2022-11-08 19:34:00,,0821.3,5.00,0.00,26.5,25.5,00.0,35.1,28.4,15.0,0001.5,0012.28,0004.11,0003.31
2022-11-08 19:35:00,,0821.3,5.00,0.00,26.5,25.5,00.0,35.1,28.4,15.2,0001.6,0012.39,0004.08,0003.29
2022-11-08 19:36:00,,0821.3,5.01,0.00,26.5,25.5,00.0,35.1,28.4,15.2,0001.5,0012.35,0004.03,0003.26
2022-11-08 19:37:00,,0821.4,5.00,0.00,26.5,25.6,00.0,35.2,28.5,15.2,0001.8,0011.63,0003.98,0003.24
2022-11-08 19:38:00,,0821.4,4.99,0.00,26.5,25.6,00.0,35.2,28.5,15.3,0001.8,0011.75,0003.95,0003.22
2022-11-08 19:39:00,,0821.3,5.01,0.00,26.5,25.6,00.0,35.2,28.5,15.3,0000.5,0011.55,0003.91,0003.20
2022-11-08 19:40:00,,0821.3,5.00,0.00,26.6,25.6,00.0,35.2,28.5,15.2,-000.0,0011.23,0003.90,0003.20
2022-11-08 19:41:00,,0821.3,4.99,0.00,26.6,25.6,00.0,35.3,28.5,15.3,-000.5,0010.20,0003.88,0003.21
2022-11-08 19:42:00,,0821.3,5.00,0.00,26.6,25.6,00.0,35.3,28.5,15.1,-001.0,0009.11,0003.86,0003.20
2022-11-08 19:43:00,,0821.2,5.02,0.00,26.6,25.6,00.0,35.3,28.5,14.9,0000.3,0009.14,0003.81,0003.20
2022-11-08 19:44:00,,0821.2,4.99,0.00,26.6,25.7,00.0,35.3,28.6,14.7,0000.6,0009.94,0003.80,0003.19
2022-11-08 19:45:00,,0821.2,4.99,0.00,26.7,25.7,00.0,35.3,28.6,14.8,0001.3,0009.98,0003.77,0003.19
2022-11-08 19:46:00,,0821.2,5.01,0.00,26.7,25.7,00.0,35.3,28.6,15.3,0001.2,0010.05,0003.75,0003.20
2022-11-08 19:47:00,,0821.2,5.01,0.00,26.7,25.8,00.0,35.4,28.7,15.3,0001.0,0010.03,0003.78,0003.22
2022-11-08 19:48:00,,0821.2,5.00,0.00,26.7,25.8,00.0,35.4,28.7,15.0,0000.3,0010.28,0003.80,0003.23
2022-11-08 19:49:00,,0821.3,5.00,0.00,26.8,25.8,00.0,35.4,28.7,14.8,-000.7,0010.28,0003.83,0003.24
2022-11-08 19:50:00,,0821.2,5.00,0.00,26.8,25.8,00.0,35.4,28.7,14.7,-000.4,0009.89,0003.86,0003.24
2022-11-08 19:51:00,,0821.2,5.01,0.00,26.8,25.8,00.0,35.4,28.8,14.5,-000.4,0009.90,0003.87,0003.24
2022-11-08 19:52:00,,0821.2,4.99,0.00,26.8,25.9,00.0,35.5,28.8,14.1,-001.1,0010.10,0003.85,0003.22
2022-11-08 19:53:00,,0821.2,4.99,0.00,26.9,25.9,00.0,35.5,28.8,14.4,-001.5,0010.85,0003.84,0003.21
2022-11-08 19:54:00,,0821.1,5.01,0.00,26.9,25.9,00.0,35.5,28.9,14.2,-001.6,0010.83,0003.82,0003.21
2022-11-08 19:55:00,,0821.1,5.00,0.00,26.9,26.0,00.0,35.5,28.8,14.0,-001.9,0009.81,0003.82,0003.21
2022-11-08 19:56:00,,0821.1,5.00,0.00,26.9,26.0,00.0,35.6,28.9,14.1,-002.0,0009.86,0003.83,0003.19
2022-11-08 19:57:00,,0821.2,4.99,0.00,26.9,26.0,00.0,35.6,28.9,13.7,-002.0,0009.77,0003.78,0003.15
2022-11-08 19:58:00,,0821.2,5.00,0.00,27.0,26.0,00.0,35.6,28.9,13.4,-001.8,0010.21,0003.75,0003.12
2022-11-08 19:59:00,,0821.1,5.00,0.00,27.0,26.0,00.0,35.6,28.9,13.7,-001.5,0010.21,0003.74,0003.06
